| time (UTC) | temp C | wind direction | speed KPH | gust KPH | rain 1hr cm | rain 24hr cm | rain mn cm | humidity % | barometer mb |
| 20260509064503 | 15 | 0 | 0.0 | 0.0 | 0.00 | 0.76 | 0.71 | 85 | 1001.8 |
| 20260509063817 | 15 | 0 | 0.0 | 0.0 | 0.00 | 0.79 | 0.71 | 84 | 1001.8 |
| 20260509062703 | 15 | 0 | 0.0 | 0.0 | 0.00 | 0.79 | 0.71 | 84 | 1001.6 |
| 20260509062017 | 15 | 0 | 0.0 | 0.0 | 0.00 | 0.79 | 0.71 | 83 | 1001.7 |
| 20260509060903 | 16 | 0 | 0.0 | 0.0 | 0.00 | 0.79 | 0.71 | 82 | 1001.8 |
| 20260509060004 | 16 | 0 | 0.0 | 0.0 | 0.00 | 0.79 | 0.71 | 83 | 1001.7 |
| 20260509055403 | 16 | 0 | 0.0 | 0.0 | 0.00 | 0.79 | 0.71 | 82 | 1001.6 |
| 20260509054504 | 16 | 0 | 0.0 | 0.0 | 0.00 | 0.79 | 0.71 | 80 | 1001.5 |
| 20260509053604 | 17 | 0 | 0.0 | 4.8 | 0.00 | 0.79 | 0.71 | 81 | 1001.5 |
| 20260509052703 | 17 | 0 | 0.0 | 0.0 | 0.00 | 0.79 | 0.71 | 80 | 1001.6 |
| 20260509051803 | 17 | 290 | 0.0 | 4.8 | 0.00 | 0.79 | 0.71 | 79 | 1001.6 |
| 20260509051118 | 17 | 291 | 0.0 | 4.8 | 0.00 | 0.79 | 0.71 | 79 | 1001.7 |
| 20260509050003 | 17 | 269 | 3.2 | 6.4 | 0.00 | 0.79 | 0.71 | 79 | 1001.7 |
| 20260509045403 | 17 | 253 | 3.2 | 9.7 | 0.00 | 0.79 | 0.71 | 78 | 1001.6 |
| 20260509044503 | 17 | 248 | 4.8 | 14.5 | 0.00 | 0.79 | 0.71 | 78 | 1001.7 |
| 20260509043603 | 18 | 260 | 4.8 | 14.5 | 0.00 | 0.79 | 0.71 | 77 | 1001.7 |
| 20260509042703 | 18 | 257 | 6.4 | 12.9 | 0.00 | 0.79 | 0.71 | 76 | 1001.6 |
| 20260509041803 | 18 | 259 | 6.4 | 17.7 | 0.00 | 0.79 | 0.71 | 75 | 1001.7 |
| 20260509040903 | 18 | 264 | 4.8 | 14.5 | 0.00 | 0.79 | 0.71 | 74 | 1001.7 |
| 20260509040003 | 18 | 266 | 4.8 | 12.9 | 0.00 | 0.79 | 0.71 | 74 | 1001.5 |
| 20260509035403 | 18 | 247 | 6.4 | 12.9 | 0.00 | 0.79 | 0.71 | 75 | 1001.5 |
| 20260509034503 | 18 | 253 | 6.4 | 14.5 | 0.00 | 0.79 | 0.71 | 74 | 1001.6 |
| 20260509033603 | 18 | 254 | 3.2 | 16.1 | 0.00 | 0.79 | 0.71 | 74 | 1001.8 |
| 20260509032917 | 18 | 277 | 3.2 | 6.4 | 0.00 | 0.79 | 0.71 | 74 | 1001.8 |
| 20260509031803 | 19 | 276 | 4.8 | 17.7 | 0.00 | 0.79 | 0.71 | 74 | 1001.8 |
| 20260509030903 | 20 | 270 | 4.8 | 12.9 | 0.00 | 0.79 | 0.71 | 71 | 1001.7 |
| 20260509030003 | 20 | 292 | 4.8 | 12.9 | 0.00 | 0.79 | 0.71 | 71 | 1001.8 |
| 20260509025617 | 20 | 313 | 4.8 | 12.9 | 0.00 | 0.79 | 0.71 | 70 | 1001.9 |
| 20260509024503 | 20 | 253 | 8.0 | 16.1 | 0.00 | 0.79 | 0.71 | 71 | 1002.0 |
| 20260509023603 | 20 | 254 | 6.4 | 17.7 | 0.00 | 0.79 | 0.71 | 68 | 1002.0 |
| 20260509022703 | 20 | 307 | 6.4 | 16.1 | 0.00 | 0.79 | 0.71 | 69 | 1002.0 |
| 20260509021803 | 20 | 308 | 8.0 | 17.7 | 0.00 | 0.79 | 0.71 | 69 | 1002.1 |
| 20260509020903 | 20 | 291 | 6.4 | 19.3 | 0.00 | 0.79 | 0.71 | 68 | 1002.2 |
| 20260509020003 | 20 | 317 | 6.4 | 16.1 | 0.00 | 0.79 | 0.71 | 71 | 1002.3 |
| 20260509015618 | 19 | 310 | 6.4 | 16.1 | 0.00 | 0.79 | 0.71 | 72 | 1002.3 |
| 20260509014503 | 20 | 263 | 6.4 | 16.1 | 0.00 | 0.79 | 0.71 | 70 | 1002.3 |
| 20260509013603 | 20 | 304 | 4.8 | 17.7 | 0.00 | 0.79 | 0.71 | 69 | 1002.5 |
| 20260509012703 | 20 | 271 | 6.4 | 16.1 | 0.00 | 0.79 | 0.71 | 74 | 1002.6 |
| 20260509011803 | 18 | 259 | 9.7 | 17.7 | 0.00 | 0.79 | 0.71 | 73 | 1002.7 |
| 20260509010903 | 18 | 260 | 11.3 | 22.5 | 0.00 | 0.79 | 0.71 | 75 | 1002.9 |
| 20260509010003 | 19 | 255 | 9.7 | 25.7 | 0.00 | 0.79 | 0.71 | 71 | 1003.1 |
| 20260509005618 | 20 | 251 | 9.7 | 24.1 | 0.00 | 0.81 | 0.71 | 70 | 1003.1 |
| 20260509004503 | 20 | 267 | 4.8 | 22.5 | 0.00 | 0.97 | 0.71 | 71 | 1002.9 |
| 20260509003603 | 20 | 291 | 6.4 | 14.5 | 0.00 | 0.99 | 0.71 | 75 | 1003.1 |
| 20260509002704 | 20 | 254 | 8.0 | 16.1 | 0.00 | 0.99 | 0.71 | 72 | 1003.4 |
| 20260509001803 | 20 | 262 | 4.8 | 17.7 | 0.00 | 0.99 | 0.71 | 73 | 1003.6 |
| 20260509000903 | 19 | 242 | 4.8 | 14.5 | 0.00 | 0.99 | 0.71 | 78 | 1003.7 |
| 20260509000003 | 18 | 238 | 8.0 | 12.9 | 0.00 | 0.99 | 0.71 | 79 | 1003.9 |
| 20260508235403 | 19 | 245 | 9.7 | 29.0 | 0.00 | 0.99 | 0.71 | 77 | 1004.1 |
| 20260508234503 | 20 | 255 | 6.4 | 17.7 | 0.00 | 0.99 | 0.71 | 75 | 1004.1 |
| 20260508233603 | 20 | 268 | 6.4 | 20.9 | 0.00 | 0.99 | 0.71 | 74 | 1004.1 |
| 20260508232918 | 20 | 260 | 3.2 | 16.1 | 0.00 | 0.99 | 0.71 | 76 | 1004.2 |
| 20260508231803 | 19 | 290 | 4.8 | 16.1 | 0.00 | 0.99 | 0.71 | 80 | 1004.4 |
| 20260508230903 | 19 | 326 | 4.8 | 14.5 | 0.00 | 0.99 | 0.71 | 77 | 1004.5 |
| 20260508230004 | 19 | 312 | 3.2 | 12.9 | 0.00 | 0.99 | 0.71 | 78 | 1004.7 |
| 20260508225403 | 19 | 288 | 3.2 | 12.9 | 0.00 | 0.99 | 0.71 | 79 | 1004.7 |
| 20260508224503 | 18 | 309 | 3.2 | 9.7 | 0.00 | 0.99 | 0.71 | 81 | 1004.8 |
| 20260508223603 | 19 | 313 | 0.0 | 8.0 | 0.00 | 0.99 | 0.71 | 80 | 1004.8 |
| 20260508222704 | 18 | 315 | 0.0 | 4.8 | 0.00 | 0.99 | 0.71 | 85 | 1004.9 |
| 20260508221804 | 18 | 338 | 0.0 | 8.0 | 0.00 | 0.99 | 0.71 | 84 | 1005.0 |
| 20260508220903 | 18 | 358 | 1.6 | 6.4 | 0.00 | 0.99 | 0.71 | 86 | 1005.1 |
| 20260508220004 | 18 | 0 | 0.0 | 8.0 | 0.00 | 0.99 | 0.71 | 87 | 1005.0 |
| 20260508215619 | 17 | 18 | 0.0 | 4.8 | 0.00 | 0.99 | 0.71 | 87 | 1005.1 |
| 20260508214503 | 17 | 35 | 1.6 | 4.8 | 0.00 | 0.99 | 0.71 | 90 | 1005.1 |
| 20260508213817 | 17 | 347 | 1.6 | 6.4 | 0.00 | 0.99 | 0.71 | 91 | 1005.2 |
| 20260508212703 | 17 | 345 | 1.6 | 4.8 | 0.00 | 0.99 | 0.71 | 94 | 1005.1 |
| 20260508211803 | 16 | 313 | 1.6 | 6.4 | 0.00 | 1.02 | 0.71 | 94 | 1005.2 |
| 20260508211117 | 16 | 303 | 0.0 | 4.8 | 0.00 | 1.02 | 0.71 | 94 | 1005.3 |
| 20260508210217 | 16 | 0 | 0.0 | 4.8 | 0.00 | 1.02 | 0.71 | 94 | 1005.3 |
| 20260508205403 | 16 | 0 | 0.0 | 0.0 | 0.00 | 1.02 | 0.71 | 94 | 1005.3 |
| 20260508204718 | 16 | 0 | 0.0 | 0.0 | 0.00 | 1.02 | 0.71 | 94 | 1005.2 |
| 20260508203603 | 15 | 0 | 0.0 | 0.0 | 0.00 | 1.02 | 0.71 | 94 | 1005.3 |
| 20260508202918 | 15 | 0 | 0.0 | 0.0 | 0.00 | 1.02 | 0.71 | 94 | 1005.1 |
| 20260508201803 | 15 | 0 | 0.0 | 0.0 | 0.00 | 1.02 | 0.71 | 94 | 1005.3 |
| 20260508201117 | 15 | 0 | 0.0 | 1.6 | 0.00 | 1.02 | 0.71 | 94 | 1005.2 |
| 20260508200218 | 14 | 0 | 0.0 | 1.6 | 0.00 | 1.02 | 0.71 | 94 | 1005.2 |
| 20260508195403 | 14 | 0 | 0.0 | 0.0 | 0.00 | 1.02 | 0.71 | 93 | 1005.1 |
| 20260508194717 | 14 | 0 | 0.0 | 1.6 | 0.00 | 1.02 | 0.71 | 93 | 1005.1 |
| 20260508193603 | 13 | 260 | 0.0 | 3.2 | 0.00 | 1.02 | 0.71 | 93 | 1005.0 |
| 20260508192918 | 13 | 185 | 1.6 | 6.4 | 0.00 | 1.02 | 0.71 | 93 | 1004.9 |
| 20260508191803 | 13 | 0 | 0.0 | 3.2 | 0.00 | 1.02 | 0.71 | 92 | 1005.0 |
| 20260508191116 | 14 | 0 | 0.0 | 3.2 | 0.00 | 1.02 | 0.71 | 92 | 1004.9 |
| 20260508190003 | 14 | 0 | 0.0 | 1.6 | 0.00 | 1.02 | 0.71 | 92 | 1004.8 |
| 20260508185617 | 14 | 0 | 0.0 | 1.6 | 0.00 | 1.02 | 0.71 | 92 | 1004.8 |
| 20260508184717 | 14 | 0 | 0.0 | 1.6 | 0.00 | 1.02 | 0.71 | 93 | 1004.8 |
| 20260508183603 | 15 | 0 | 0.0 | 1.6 | 0.00 | 1.02 | 0.71 | 93 | 1004.8 |
| 20260508182703 | 15 | 0 | 0.0 | 3.2 | 0.00 | 1.02 | 0.71 | 93 | 1004.8 |
| 20260508181803 | 15 | 261 | 0.0 | 4.8 | 0.00 | 1.02 | 0.71 | 93 | 1004.8 |
| 20260508180903 | 15 | 0 | 1.6 | 0.0 | 0.00 | 1.02 | 0.71 | 93 | 1004.8 |
| 20260508180003 | 15 | 262 | 0.0 | 4.8 | 0.00 | 1.02 | 0.71 | 93 | 1004.9 |
| 20260508175403 | 15 | 0 | 0.0 | 0.0 | 0.00 | 1.02 | 0.71 | 93 | 1004.9 |
| 20260508174503 | 15 | 0 | 0.0 | 0.0 | 0.00 | 1.02 | 0.71 | 93 | 1004.9 |
| 20260508173603 | 15 | 0 | 0.0 | 0.0 | 0.03 | 1.02 | 0.71 | 93 | 1004.8 |
| 20260508172703 | 15 | 0 | 0.0 | 0.0 | 0.03 | 1.02 | 0.71 | 93 | 1004.8 |
| 20260508171803 | 15 | 0 | 0.0 | 0.0 | 0.03 | 1.02 | 0.71 | 93 | 1004.7 |
| 20260508170903 | 15 | 0 | 0.0 | 1.6 | 0.03 | 1.02 | 0.71 | 93 | 1004.6 |
| 20260508170217 | 15 | 0 | 0.0 | 1.6 | 0.03 | 1.02 | 0.71 | 93 | 1004.4 |
| 20260508165403 | 15 | 0 | 0.0 | 1.6 | 0.03 | 1.02 | 0.71 | 93 | 1004.3 |
| 20260508164503 | 15 | 0 | 0.0 | 4.8 | 0.03 | 1.02 | 0.71 | 93 | 1004.1 |
| 20260508163603 | 15 | 0 | 0.0 | 3.2 | 0.00 | 0.99 | 0.71 | 93 | 1004.1 |
| 20260508162917 | 15 | 0 | 0.0 | 3.2 | 0.03 | 0.99 | 0.71 | 93 | 1004.2 |
| 20260508161803 | 15 | 0 | 0.0 | 3.2 | 0.03 | 0.99 | 0.71 | 92 | 1004.4 |
| 20260508160903 | 15 | 0 | 0.0 | 1.6 | 0.05 | 0.99 | 0.71 | 92 | 1004.6 |
| 20260508160004 | 15 | 0 | 0.0 | 1.6 | 0.10 | 0.99 | 0.71 | 92 | 1004.4 |
| 20260508155403 | 15 | 0 | 0.0 | 3.2 | 0.10 | 0.99 | 0.71 | 92 | 1004.5 |
| 20260508154503 | 15 | 0 | 0.0 | 3.2 | 0.10 | 0.99 | 0.71 | 92 | 1004.5 |
| 20260508153603 | 15 | 0 | 0.0 | 1.6 | 0.10 | 0.99 | 0.71 | 92 | 1005.0 |
| 20260508152703 | 15 | 0 | 0.0 | 0.0 | 0.10 | 0.99 | 0.69 | 92 | 1005.3 |
| 20260508151803 | 15 | 271 | 0.0 | 1.6 | 0.13 | 0.99 | 0.69 | 92 | 1005.3 |
| 20260508151117 | 15 | 271 | 1.6 | 1.6 | 0.25 | 0.97 | 0.66 | 92 | 1005.4 |
| 20260508150218 | 15 | 242 | 1.6 | 6.4 | 0.56 | 0.89 | 0.61 | 91 | 1005.5 |
| 20260508145403 | 16 | 221 | 1.6 | 6.4 | 0.58 | 0.89 | 0.61 | 92 | 1005.2 |
| 20260508144503 | 16 | 228 | 3.2 | 14.5 | 0.61 | 0.89 | 0.61 | 91 | 1005.5 |
| 20260508143603 | 16 | 250 | 6.4 | 14.5 | 0.61 | 0.89 | 0.61 | 91 | 1005.6 |
| 20260508142918 | 16 | 262 | 6.4 | 19.3 | 0.58 | 0.89 | 0.58 | 91 | 1005.6 |
| 20260508141803 | 17 | 311 | 11.3 | 17.7 | 0.56 | 0.86 | 0.56 | 92 | 1005.8 |
| 20260508140903 | 17 | 359 | 11.3 | 40.2 | 0.33 | 0.64 | 0.33 | 91 | 1005.6 |
| 20260508140004 | 18 | 7 | 9.7 | 27.4 | 0.05 | 0.33 | 0.05 | 92 | 1005.1 |
| 20260508135403 | 18 | 13 | 9.7 | 24.1 | 0.03 | 0.33 | 0.03 | 92 | 1005.3 |
| 20260508134503 | 18 | 12 | 9.7 | 27.4 | 0.00 | 0.30 | 0.00 | 91 | 1005.3 |
| 20260508133603 | 18 | 8 | 9.7 | 30.6 | 0.00 | 0.30 | 0.00 | 91 | 1005.6 |
| 20260508132703 | 18 | 13 | 11.3 | 32.2 | 0.00 | 0.30 | 0.00 | 90 | 1005.7 |
| 20260508132017 | 18 | 11 | 9.7 | 25.7 | 0.00 | 0.30 | 0.00 | 90 | 1005.8 |
| 20260508130903 | 18 | 16 | 6.4 | 30.6 | 0.00 | 0.33 | 0.00 | 90 | 1006.0 |
| 20260508130004 | 18 | 16 | 6.4 | 24.1 | 0.00 | 0.43 | 0.00 | 90 | 1005.9 |
| 20260508125617 | 18 | 14 | 6.4 | 20.9 | 0.00 | 0.43 | 0.00 | 90 | 1005.9 |
| 20260508124717 | 18 | 22 | 6.4 | 20.9 | 0.00 | 0.43 | 0.00 | 90 | 1006.0 |
| 20260508123603 | 18 | 20 | 6.4 | 20.9 | 0.00 | 0.43 | 0.00 | 90 | 1006.1 |
| 20260508122703 | 18 | 21 | 6.4 | 20.9 | 0.00 | 0.43 | 0.00 | 90 | 1006.2 |
| 20260508121803 | 18 | 13 | 4.8 | 20.9 | 0.00 | 0.43 | 0.00 | 90 | 1006.6 |
| 20260508120903 | 18 | 18 | 4.8 | 17.7 | 0.00 | 0.43 | 0.00 | 90 | 1006.8 |
| 20260508120217 | 18 | 16 | 4.8 | 16.1 | 0.00 | 0.43 | 0.00 | 90 | 1007.0 |
| 20260508115403 | 18 | 10 | 6.4 | 16.1 | 0.00 | 0.43 | 0.43 | 90 | 1007.2 |
| 20260508114503 | 18 | 2 | 4.8 | 17.7 | 0.03 | 0.43 | 0.43 | 90 | 1007.4 |
| 20260508113603 | 18 | 6 | 4.8 | 16.1 | 0.03 | 0.43 | 0.43 | 90 | 1007.5 |
| 20260508112703 | 18 | 15 | 6.4 | 17.7 | 0.03 | 0.43 | 0.43 | 90 | 1007.5 |
| 20260508112018 | 18 | 14 | 6.4 | 16.1 | 0.03 | 0.43 | 0.43 | 90 | 1007.6 |
| 20260508110903 | 18 | 18 | 8.0 | 20.9 | 0.03 | 0.43 | 0.43 | 90 | 1007.9 |
| 20260508110004 | 18 | 8 | 6.4 | 24.1 | 0.03 | 0.43 | 0.43 | 90 | 1008.2 |
| 20260508105403 | 18 | 4 | 4.8 | 24.1 | 0.03 | 0.43 | 0.43 | 90 | 1008.3 |
| 20260508104503 | 18 | 1 | 4.8 | 17.7 | 0.00 | 0.43 | 0.43 | 90 | 1008.2 |
| 20260508103603 | 18 | 7 | 4.8 | 19.3 | 0.00 | 0.43 | 0.43 | 90 | 1008.8 |
| 20260508102703 | 18 | 356 | 6.4 | 29.0 | 0.00 | 0.43 | 0.43 | 90 | 1008.9 |
| 20260508101803 | 18 | 20 | 6.4 | 22.5 | 0.00 | 0.43 | 0.43 | 90 | 1009.0 |
| 20260508100903 | 18 | 35 | 6.4 | 24.1 | 0.00 | 0.43 | 0.43 | 90 | 1009.2 |
| 20260508100004 | 18 | 39 | 4.8 | 22.5 | 0.00 | 0.43 | 0.43 | 90 | 1009.2 |
| 20260508095403 | 18 | 37 | 6.4 | 16.1 | 0.00 | 0.43 | 0.43 | 90 | 1009.3 |
| 20260508094503 | 18 | 28 | 6.4 | 19.3 | 0.00 | 0.43 | 0.43 | 90 | 1009.5 |
| 20260508093604 | 18 | 39 | 6.4 | 19.3 | 0.00 | 0.43 | 0.43 | 90 | 1009.5 |
| 20260508092918 | 18 | 37 | 6.4 | 14.5 | 0.00 | 0.43 | 0.43 | 90 | 1009.6 |
| 20260508091803 | 18 | 40 | 6.4 | 19.3 | 0.00 | 0.43 | 0.43 | 90 | 1009.7 |
| 20260508090903 | 18 | 34 | 8.0 | 20.9 | 0.00 | 0.43 | 0.43 | 90 | 1009.8 |
| 20260508090003 | 18 | 38 | 9.7 | 25.7 | 0.00 | 0.43 | 0.43 | 90 | 1009.9 |
| 20260508085403 | 18 | 42 | 6.4 | 25.7 | 0.00 | 0.43 | 0.43 | 91 | 1009.9 |
| 20260508084504 | 18 | 31 | 4.8 | 25.7 | 0.00 | 0.43 | 0.43 | 91 | 1010.1 |
| 20260508083603 | 17 | 18 | 3.2 | 14.5 | 0.00 | 0.43 | 0.43 | 91 | 1010.3 |
| 20260508082703 | 17 | 26 | 3.2 | 11.3 | 0.00 | 0.43 | 0.43 | 91 | 1010.3 |
| 20260508081803 | 17 | 20 | 4.8 | 14.5 | 0.00 | 0.43 | 0.43 | 91 | 1010.2 |
| 20260508080903 | 17 | 31 | 6.4 | 20.9 | 0.00 | 0.43 | 0.43 | 91 | 1010.3 |
| 20260508080003 | 17 | 31 | 6.4 | 19.3 | 0.00 | 0.43 | 0.43 | 91 | 1010.2 |
| 20260508075404 | 17 | 19 | 9.7 | 19.3 | 0.03 | 0.43 | 0.43 | 91 | 1010.3 |
| 20260508074503 | 17 | 33 | 8.0 | 24.1 | 0.03 | 0.43 | 0.43 | 90 | 1010.4 |
| 20260508073604 | 17 | 38 | 4.8 | 20.9 | 0.05 | 0.43 | 0.43 | 91 | 1010.5 |
| 20260508072704 | 17 | 42 | 4.8 | 12.9 | 0.05 | 0.43 | 0.43 | 91 | 1010.4 |
| 20260508071803 | 17 | 37 | 6.4 | 19.3 | 0.05 | 0.43 | 0.43 | 91 | 1010.6 |
| 20260508070903 | 17 | 21 | 4.8 | 19.3 | 0.05 | 0.43 | 0.43 | 90 | 1010.8 |
| 20260508070003 | 17 | 12 | 4.8 | 17.7 | 0.05 | 0.43 | 0.43 | 90 | 1010.9 |
| 20260508065618 | 17 | 9 | 6.4 | 17.7 | 0.05 | 0.43 | 0.43 | 90 | 1010.7 |